Lapse_Rate
5.8 5.6 5.4 5.3 5.2 5.2 5.4 5.3 5.4 5.5 5.6 5.8 5.9 6.1 6.1 6.0 5.9 5.7 5.6 5.5 5.3 5.1
5.6 5.4 5.3 5.4 5.4 5.6 5.5 5.5 5.6 5.6 5.5 5.7 5.8 6.0 6.0 6.0 5.8 5.6 5.4 5.3 5.2 5.1
5.4 5.3 5.4 5.6 5.6 5.6 5.7 5.8 5.7 5.4 5.4 5.6 5.8 5.9 5.9 5.8 5.6 5.4 5.1 5.0 5.0 5.1
5.4 5.4 5.5 5.5 5.7 5.8 5.9 5.7 5.6 5.4 5.5 5.8 5.8 5.7 5.7 5.5 5.2 5.0 4.9 4.9 5.0 5.0
5.4 5.5 5.7 5.8 5.9 6.0 5.9 5.8 5.5 5.5 5.6 5.7 5.6 5.6 5.4 5.1 4.9 4.9 5.0 5.0 4.9 4.8
5.7 5.9 5.8 6.0 6.1 6.0 5.9 5.6 5.5 5.5 5.6 5.6 5.6 5.3 5.0 4.9 4.9 4.9 4.9 4.8 4.6 4.5
5.9 5.9 6.0 6.1 6.1 5.9 5.7 5.5 5.5 5.6 5.6 5.4 5.2 5.0 4.9 4.9 4.9 4.9 4.7 4.4 4.4 4.2
6.0 6.1 6.1 6.0 5.9 5.8 5.5 5.4 5.5 5.5 5.3 5.2 5.0 5.0 5.0 4.9 4.9 4.7 4.6 4.4 3.9 3.6
6.0 6.0 5.9 6.0 5.8 5.5 5.4 5.6 5.5 5.4 5.2 5.0 4.9 4.9 4.8 4.8 4.8 4.6 4.2 3.9 3.6 3.5
5.9 5.9 6.0 5.8 5.7 5.6 5.6 5.4 5.3 5.1 5.0 4.9 4.9 4.8 4.9 4.8 4.6 4.1 3.8 3.5 3.4 3.4
5.9 6.0 5.9 5.7 5.6 5.6 5.5 5.3 5.1 4.8 4.9 4.8 4.8 5.0 4.7 4.5 4.0 3.7 3.4 3.4 3.4 3.1
6.0 5.9 5.7 5.8 5.7 5.5 5.2 4.9 4.8 4.8 4.8 4.9 4.8 4.6 4.3 3.9 3.6 3.5 3.6 3.7 3.4 3.0
6.0 5.8 5.8 5.6 5.5 5.1 4.9 4.9 4.8 4.8 4.8 4.6 4.4 4.0 3.7 3.5 3.5 3.7 3.8 3.6 3.4 3.8
5.7 5.7 5.6 5.2 5.0 4.9 4.8 4.8 4.8 4.6 4.4 4.2 3.9 3.6 3.4 3.5 3.7 3.6 3.6 3.6 4.2 4.4
Wind_Speed
8 5 4 4 4 4 3 3 3 3 3 4 5 4 4 2 3 3 4 5 4 3
7 7 6 7 5 4 4 3 3 3 3 3 4 4 5 3 5 4 3 5 4 3
7 7 6 6 6 6 4 3 3 3 4 4 5 4 4 4 5 5 4 4 5 4
6 6 6 6 6 5 4 3 4 4 4 5 6 6 5 5 6 6 6 6 5 6
7 6 6 6 6 4 4 4 4 4 5 6 6 6 6 6 6 6 7 7 6 7
6 6 6 6 5 4 4 4 5 5 6 6 6 6 6 6 6 7 7 7 6 7
6 6 6 5 4 4 4 5 5 5 5 5 6 6 6 6 6 6 6 7 7 7
6 6 6 5 4 4 5 5 5 5 5 5 5 5 7 6 6 6 7 7 7 7
6 6 5 4 4 4 5 5 4 4 5 6 5 14 16 13 5 6 6 8 8 7
6 6 5 4 5 5 4 3 5 5 5 6 6 15 16 17 2 5 6 8 9 9
6 5 5 5 4 2 2 4 4 5 6 6 6 16 17 18 5 5 7 7 9 10
5 5 5 4 3 3 3 3 4 4 6 6 7 16 18 16 6 6 8 9 9 10
6 5 4 3 3 1 2 3 4 6 5 10 7 15 18 15 6 7 8 7 7 15
5 5 4 3 1 3 4 5 5 5 6 6 7 8 18 19 9 8 9 8 8 7
Wind_Direction
126 130 129 134 130 124 115 112 81 79 60 34 22 14 10 6 334 316 315 313 300 279
119 123 130 118 111 111 104 108 95 66 43 22 7 3 1 342 320 315 304 295 284 265
118 113 113 114 112 107 101 81 71 44 27 9 359 352 351 322 308 312 304 298 294 282
112 112 108 103 101 100 91 68 47 26 13 3 349 350 336 322 308 321 302 296 282 280
115 111 105 102 96 92 84 54 35 19 11 358 348 331 326 318 313 302 298 292 286 278
116 114 111 104 102 88 71 47 28 22 9 350 335 320 315 302 294 292 288 286 281 275
127 124 116 113 97 78 60 48 27 12 354 341 318 310 302 296 296 293 295 296 287 276
126 118 116 104 85 72 57 40 20 358 342 336 329 330 326 318 310 313 313 304 295 292
124 121 114 101 88 68 44 19 1 354 347 339 337 327 335 338 339 337 312 315 309 295
126 122 114 98 73 50 19 351 356 349 341 325 317 330 333 332 347 312 304 310 311 309
126 121 106 80 57 15 8 358 339 329 329 324 316 333 332 327 309 297 289 287 292 292
126 111 91 81 38 15 1 335 333 324 322 320 307 328 328 329 308 287 281 282 282 286
102 105 102 81 50 347 333 337 338 321 316 321 312 316 328 330 313 298 301 299 285 302
98 99 87 77 37 360 356 337 327 322 311 301 303 306 328 329 322 311 316 318 323 314